sat.trackr.live / text

‹ back to catalog

2024-092C

NORAD 59775 · 2024-092C

PAYLOAD ACTIVE UNKNOWN

§ Identity

Operator
Country
CIS
Launch date
2024-05-16
Launch site
PLMSC
Launch vehicle
Mass (kg)
RCS (m²)

External: N2YO · Heavens-Above · Gunter

§ Orbital elements

Epoch: 2026-09-22T21:48:07.055136Z

Period
94.05 min
Inclination
97.6754°
Eccentricity
0.0008212
Mean motion
15.31041418 rev/d
Perigee alt
467.1 km
Apogee alt
478.3 km
Semi-major
6,850.8 km
B*
2.6307e-4
RAAN
40.0227°
Arg perigee
192.1704°
Mean anomaly
167.9339°
Rev number
13,052

§ Raw data

2024-092C1 59775U 24092C   26265.90841499  .00007815  00000+0  26307-3 0  99962 59775  97.6754  40.0227 0008212 192.1704 167.9339 15.31041418130522

JSON: /api/v1/satellites/59775 · /tle

For live sub-satellite position, see the globe view (requires WebGL).

§ Visibility from observer

Set your observer location to see the next 7 days of passes ≥ 10°. The values pass through the URL so the page stays shareable.

No JS? Fill the form by hand. The geolocation button needs JavaScript.

§ Radio — SatNOGS DB

ModeDescriptionDownlinkUplink
GMSK USP Backup telemetry transmitter 401.160 MHz
GMSK USP Main telemetry transmitter 401.035 MHz

2 transmitters · refreshed weekly from db.satnogs.org